This demonstration page uses our WeatherBlox Daily Observations layout. Learn more.

Left ArrowRight Arrow

Hourly Observations for December 1, 2017

Temp ( °F °C ) Dew Point ( °F °C ) Humidity (%) Winds ( mph kmh ) Pressure ( in mb ) Visibility ( mi km ) Precip ( " mm )
12:53 am 00:53 Clear 41 5 28 -2.2 60 60 NNW 6 9 30.15 1021 10 16 0.00 0.00
1:53 am 01:53 Clear 39 3.9 28 -2.2 65 65 N 7 11 30.13 1020 10 16 0.00 0.00
2:53 am 02:53 Clear 37 2.8 27 -2.8 67 67 NNW 6 9 30.12 1020 10 16 0.00 0.00
3:53 am 03:53 Clear 37 2.8 27 -2.8 67 67 NNW 7 11 30.11 1020 10 16 0.00 0.00
4:53 am 04:53 Clear 37 2.8 28 -2.2 70 70 N 6 9 30.10 1019 10 16 0.00 0.00
5:53 am 05:53 Clear 36 2.2 28 -2.2 73 73 N 6 9 30.11 1020 10 16 0.00 0.00
6:53 am 06:53 Clear 36 2.2 28 -2.2 73 73 N 3 6 30.14 1021 10 16 0.00 0.00
7:53 am 07:53 Sunny 36 2.2 29 -1.7 76 76 N 6 9 30.14 1021 10 16 0.00 0.00
8:53 am 08:53 Sunny 42 5.6 30 -1.1 62 62 Calm 30.15 1021 10 16 0.00 0.00
9:53 am 09:53 Sunny 51 10.6 32 0 48 48 SE 7 11 30.13 1020 10 16 0.00 0.00
10:53 am 10:53 Sunny 60 15.6 31 -0.6 33 33 S 3 6 30.11 1020 10 16 0.00 0.00
11:53 am 11:53 Sunny 62 16.7 32 0 32 32 SSE 7 11 30.09 1019 10 16 0.00 0.00
12:53 pm 12:53 Sunny 66 18.9 34 1.1 30 30 S 7 11 30.04 1017 10 16 0.00 0.00
1:53 pm 13:53 Sunny 68 20 34 1.1 28 28 VRB 5 7 30.01 1016 10 16 0.00 0.00
2:53 pm 14:53 Sunny 70 21.1 34 1.1 27 27 ESE 6 9 29.99 1016 10 16 0.00 0.00
3:53 pm 15:53 Sunny 71 21.7 33 0.6 25 25 Calm 29.98 1015 10 16 0.00 0.00
4:53 pm 16:53 Sunny 69 20.6 34 1.1 27 27 ESE 3 6 29.99 1016 10 16 0.00 0.00
5:53 pm 17:53 Clear 64 17.8 35 1.7 34 34 Calm 30.01 1016 7 11 0.00 0.00
6:53 pm 18:53 Clear 61 16.1 35 1.7 38 38 ESE 3 6 30.01 1016 10 16 0.00 0.00
7:53 pm 19:53 Clear 56 13.3 35 1.7 46 46 Calm 30.04 1017 10 16 0.00 0.00
8:53 pm 20:53 Clear 53 11.7 35 1.7 51 51 Calm 30.04 1017 10 16 0.00 0.00
9:53 pm 21:53 Clear 51 10.6 34 1.1 52 52 N 8 13 30.03 1017 10 16 0.00 0.00
10:53 pm 22:53 Clear 49 9.4 35 1.7 59 59 N 8 13 30.02 1017 10 16 0.00 0.00
11:53 pm 23:53 Clear 49 9.4 36 2.2 61 61 N 5 7 30.03 1017 10 16 0.00 0.00

Powered by AerisWeather